Theta_e
292 293 293 293 292 292 291 290 290 290 291 290 288 289 291 290 286 285 290 291 289 291 293 292 292 292 293 293 293 294 294 295 295 296 295 295 295 296 296 295 296 296 297 298 298 298 298 297 298 297 296 295 295 295 297 297 297 300 301 300 300 300 299 299 299 300 300 300 300 299 296 297 297 297 296 295 295 295 295 295 297 297 298 299 297 297 296
291 291 292 292 291 291 291 290 291 292 291 291 291 291 292 291 289 291 292 291 291 294 294 295 294 294 293 293 293 292 293 295 295 294 294 294 294 294 295 296 296 297 297 298 300 300 297 298 297 297 297 296 297 298 298 296 296 296 298 299 300 300 299 299 299 299 298 299 298 296 296 295 294 293 293 292 292 293 293 293 293 293 294 294 293 293 293
288 292 292 291 291 290 288 290 291 291 292 291 292 292 292 291 291 292 292 290 290 296 296 296 295 295 294 293 292 293 293 293 293 293 293 293 293 294 295 295 295 296 297 298 298 300 299 298 298 299 299 298 297 297 296 296 296 295 298 299 299 299 300 299 299 299 298 295 293 293 295 294 292 291 291 290 290 291 291 291 292 291 291 292 291 291 293
287 289 290 290 290 289 288 288 289 290 290 288 290 289 292 290 288 290 290 288 289 295 297 296 293 293 292 293 293 292 293 293 293 293 293 293 294 294 295 295 295 296 296 297 299 301 300 299 297 297 297 297 296 297 296 296 296 295 297 298 299 299 300 299 298 297 294 293 291 291 291 291 290 290 289 289 290 290 290 290 290 290 291 291 291 291 291
286 289 289 288 288 287 285 286 289 291 291 292 293 293 293 293 293 289 287 288 294 294 296 295 293 293 293 293 294 293 293 294 294 295 294 294 295 295 296 296 296 296 296 297 299 300 299 300 298 298 298 297 298 297 296 296 295 295 296 296 298 299 298 298 296 296 293 291 291 290 290 290 289 289 288 289 289 289 290 289 289 290 290 291 291 290 291
287 288 287 288 286 281 282 293 295 294 291 292 290 290 292 294 294 292 294 294 295 295 294 295 295 295 295 295 295 296 296 295 293 294 295 295 296 296 297 298 298 297 297 297 298 298 298 299 300 299 298 298 298 296 296 294 294 294 295 295 297 297 295 296 294 293 292 291 291 291 290 289 289 288 288 289 289 289 289 288 289 289 290 289 290 290 290
285 286 286 284 279 282 294 297 297 297 296 295 293 294 294 295 295 295 295 295 296 297 296 296 297 297 298 296 296 296 296 296 296 295 295 295 295 296 297 297 297 296 296 296 296 294 295 297 297 297 296 295 294 294 294 294 293 294 293 294 295 296 294 294 293 293 292 291 291 291 289 289 288 289 289 289 289 288 289 288 288 288 289 289 289 289 290
286 284 284 278 280 289 292 294 297 298 297 296 293 291 294 296 296 296 295 296 297 298 298 299 297 296 296 296 297 298 298 297 297 295 296 296 295 296 298 297 297 297 296 297 297 297 296 296 297 297 297 295 294 293 291 293 291 292 292 293 294 294 293 293 293 293 292 292 291 291 289 289 288 288 288 289 288 289 288 288 289 289 289 289 288 289 289
282 283 284 284 288 286 288 291 291 295 292 292 291 287 291 296 297 296 296 297 298 298 299 298 296 293 294 293 298 299 299 298 297 298 297 298 298 298 298 296 297 298 298 298 298 296 294 296 296 295 293 294 292 291 291 291 291 290 290 291 292 292 292 293 293 293 292 292 291 290 289 288 288 288 288 288 288 288 288 288 288 288 288 288 288 288 288
288 283 281 283 283 282 286 292 297 299 298 298 297 293 290 297 298 299 298 297 298 298 298 298 294 292 290 292 296 300 297 298 297 295 298 299 300 300 298 295 294 295 294 294 294 297 295 294 294 293 292 292 291 291 290 290 290 289 289 290 290 291 292 292 292 293 292 292 291 289 288 288 288 288 288 287 287 288 288 288 288 287 288 288 287 288 288
286 284 282 281 281 285 293 294 295 297 297 297 295 289 287 295 298 299 299 298 298 298 297 296 292 291 290 292 297 296 298 295 297 299 300 302 302 301 299 298 297 295 296 296 294 293 293 293 292 291 291 291 291 290 289 290 289 289 289 289 289 290 291 292 293 292 292 291 290 289 288 288 288 288 288 287 287 287 287 287 287 287 287 287 287 287 287
285 285 283 282 286 287 292 296 295 298 297 298 292 282 285 296 298 300 299 298 298 298 297 294 293 293 290 294 295 297 298 298 300 300 301 301 301 299 297 293 294 295 292 292 290 292 292 293 292 291 291 291 290 290 289 289 289 289 289 288 288 289 290 292 292 292 290 290 289 289 288 288 288 288 287 287 287 287 287 287 287 286 286 287 287 287 287
285 285 285 286 287 292 292 294 296 297 298 295 286 282 291 299 299 299 300 299 299 298 297 295 293 297 299 300 295 297 297 297 297 298 300 301 301 299 297 295 292 292 292 295 294 293 293 291 291 291 291 291 290 289 289 289 289 289 287 288 288 289 291 292 292 291 290 290 289 288 288 288 287 287 287 287 286 287 287 287 286 286 286 286 286 286 286
283 284 284 284 288 292 292 292 296 298 294 285 284 295 296 295 296 299 300 299 299 298 298 298 298 300 300 299 292 292 295 297 298 298 298 298 298 295 293 293 292 291 290 289 288 288 287 290 291 291 291 290 289 288 288 289 288 287 288 288 288 289 290 291 290 289 289 288 288 288 287 287 287 287 287 287 286 286 287 286 286 286 285 286 286 286 286
285 285 282 283 280 290 297 294 293 295 290 291 297 294 290 291 293 295 295 299 299 299 298 299 300 300 298 297 297 296 295 296 295 293 295 296 297 295 291 291 290 292 290 289 289 290 289 289 289 289 289 289 288 288 289 288 287 288 288 288 288 288 289 289 289 288 288 288 288 288 288 287 287 287 286 286 286 286 286 286 285 285 285 285 285 285 285
281 283 281 282 288 291 297 296 290 293 298 293 292 293 289 290 292 293 295 293 295 298 299 298 298 299 298 298 297 295 295 295 293 293 294 296 296 292 292 293 291 291 292 291 289 286 287 288 288 288 289 288 288 288 288 287 288 288 288 288 288 288 287 287 288 287 287 287 287 287 287 287 287 286 286 286 286 286 286 286 285 285 285 285 285 284 285
286 285 287 291 288 294 299 300 299 298 300 295 290 293 292 291 293 291 294 296 292 296 298 297 297 297 296 297 297 296 297 295 294 295 295 294 293 291 291 291 289 289 291 289 288 286 285 286 286 288 288 289 288 288 287 287 287 287 287 287 287 286 285 286 287 287 287 287 286 286 286 287 287 286 285 285 285 285 285 285 285 285 285 285 284 284 285
292 294 294 295 294 292 294 298 299 298 299 292 291 295 293 292 292 294 293 293 295 294 296 297 294 296 296 295 296 295 296 295 293 292 290 288 287 288 288 286 287 288 287 287 287 287 284 284 285 286 286 288 288 288 286 287 287 287 286 286 285 284 284 284 285 286 286 286 286 286 286 286 286 286 285 285 285 285 285 285 285 285 284 284 284 284 284
289 285 294 293 293 294 294 295 295 293 292 293 291 291 292 291 291 291 291 292 294 295 294 296 296 295 294 294 296 296 293 289 288 290 292 290 289 289 289 288 287 287 287 287 287 286 285 282 284 284 285 284 286 286 286 285 285 285 285 285 284 283 282 282 283 285 285 285 285 286 286 286 286 286 286 286 285 284 285 285 284 284 285 284 284 284 284
288 289 293 294 295 296 295 296 296 295 296 289 288 288 288 288 287 287 289 289 291 291 292 293 294 295 294 294 294 293 292 291 290 289 289 288 287 286 287 286 287 287 288 288 287 285 285 283 283 282 282 282 283 284 283 284 284 284 284 283 283 282 281 281 281 282 283 281 283 284 285 286 285 285 285 285 285 285 284 285 285 284 284 284 284 284 283
290 292 293 292 290 291 294 295 294 290 291 290 289 287 287 287 288 286 286 287 287 288 293 292 292 293 293 293 293 293 292 289 288 288 289 288 289 287 286 285 287 288 287 287 286 285 284 282 282 281 280 279 280 281 281 282 283 284 283 282 281 280 280 280 280 280 280 280 280 282 282 282 283 283 283 283 284 284 285 286 286 284 283 281 280 277 278
287 288 291 293 288 289 293 295 294 289 289 290 290 288 288 288 288 288 288 287 286 286 287 289 291 293 294 293 290 290 290 289 288 287 287 287 287 286 285 285 286 285 285 286 285 284 282 282 282 282 279 278 277 278 280 281 283 283 282 281 280 279 280 280 280 280 280 278 279 279 279 279 278 276 280 282 282 279 277 282 283 284 283 277 277 275 276
287 293 295 296 295 295 296 294 295 296 295 295 294 292 292 291 288 288 287 286 286 287 286 285 288 289 291 291 288 287 286 288 288 289 288 287 286 285 283 284 282 284 284 284 284 282 282 282 282 281 278 276 277 277 279 280 282 281 281 281 280 279 279 279 280 279 279 279 279 279 279 278 278 278 275 277 283 283 282 281 282 283 284 285 284 283 278
294 296 296 296 294 294 296 293 293 295 295 293 293 293 291 291 291 288 286 287 288 288 287 286 286 289 289 288 287 288 287 285 286 286 287 287 286 284 283 285 284 283 283 283 282 281 281 281 280 279 277 275 276 276 278 280 281 281 281 281 280 279 279 279 279 279 278 278 278 278 277 276 278 277 277 276 276 282 283 283 283 283 283 283 283 283 283
294 296 296 294 293 295 296 291 294 294 294 295 296 295 294 290 288 288 290 289 288 289 290 290 287 286 287 286 285 287 287 285 285 286 286 285 284 283 283 282 283 284 283 283 281 281 280 279 278 276 275 273 272 273 276 278 280 281 280 281 280 279 278 278 278 278 278 278 277 277 277 277 277 277 277 276 277 275 278 282 283 283 283 283 282 282 283
297 297 290 290 293 294 293 288 290 291 293 293 294 294 294 292 293 291 291 292 292 288 288 288 289 285 285 286 285 284 284 283 283 284 284 283 282 282 282 283 283 282 281 280 280 279 278 277 276 274 273 271 270 272 274 276 277 277 278 279 279 278 278 278 278 277 277 277 277 276 276 276 276 276 275 276 275 275 274 274 275 279 282 282 282 283 283
296 295 290 290 289 292 291 293 293 290 291 292 293 294 295 295 292 293 293 290 288 287 287 287 287 285 284 284 284 283 285 282 281 282 282 282 282 282 282 281 281 280 279 278 278 277 276 275 274 272 270 269 268 270 273 275 276 276 276 276 277 276 275 276 276 276 276 275 275 275 275 275 274 274 276 274 274 273 273 273 273 273 274 275 280 283 279
296 295 292 292 291 291 290 290 292 289 291 292 292 293 294 294 292 290 290 289 287 285 284 283 285 283 284 281 283 280 281 282 283 280 281 280 278 279 279 279 278 278 277 277 276 275 275 273 272 271 269 267 268 271 273 275 276 276 276 276 276 275 275 276 276 275 275 276 274 275 274 273 274 274 274 273 273 273 273 273 272 272 273 274 275 280 282
294 295 295 295 296 296 291 287 287 287 288 289 290 292 290 290 289 289 290 290 290 286 284 281 282 284 285 283 283 283 282 281 281 281 279 277 277 278 277 277 276 276 276 275 274 274 273 273 272 270 268 266 268 271 273 275 275 276 276 276 276 275 275 275 275 275 274 274 274 275 276 273 273 272 272 272 272 270 270 270 271 271 271 270 270 271 276
294 295 294 294 292 286 288 287 289 288 288 289 289 289 289 289 289 288 288 288 284 286 285 281 281 281 281 282 283 284 283 282 281 277 276 276 276 276 276 276 275 274 274 274 273 272 272 272 271 270 269 267 269 271 273 274 274 273 274 275 275 275 274 274 274 274 273 272 272 275 272 272 272 271 271 270 270 270 270 270 271 270 270 269 274 270 270
291 290 288 287 286 286 289 290 289 289 289 288 288 288 286 285 288 288 288 285 282 284 281 283 282 281 280 282 280 279 279 277 276 275 275 275 274 275 275 277 278 276 274 273 272 272 271 270 270 269 267 267 268 270 272 273 273 272 272 272 272 274 275 276 275 273 273 272 272 271 271 271 271 271 270 269 269 269 268 268 269 269 270 269 269 270 270
290 288 287 286 287 287 288 289 288 288 288 287 286 287 287 287 287 287 288 286 286 286 283 281 281 281 281 280 279 277 276 276 275 274 275 275 275 272 272 273 274 273 272 272 272 271 270 269 268 267 265 266 268 270 272 273 274 274 273 271 272 273 274 275 274 274 272 272 272 271 270 270 269 269 269 269 268 268 268 268 268 269 269 270 270 269 269
289 287 284 283 282 283 286 286 287 287 286 285 287 288 288 288 289 289 289 286 282 281 283 282 281 280 279 278 277 276 275 274 274 274 274 272 271 272 272 272 272 271 270 270 270 270 269 268 267 266 266 267 267 268 270 272 273 273 273 273 272 272 272 274 274 273 272 271 270 270 270 269 269 269 268 269 269 269 268 268 268 269 270 268 267 267 269
290 290 290 289 288 288 287 287 287 287 287 287 287 287 287 287 287 286 284 283 283 282 282 281 279 278 277 276 275 275 274 274 274 273 271 271 270 270 270 270 269 268 268 268 268 268 268 267 267 266 267 267 268 269 271 272 272 273 272 272 272 271 271 272 272 271 271 270 269 270 269 269 269 268 268 269 268 269 269 269 270 269 268 267 266 266 272
284 287 286 288 289 290 289 290 289 287 287 286 286 285 286 286 285 285 283 283 283 282 280 279 278 277 276 275 275 275 276 276 275 272 270 270 269 268 268 267 267 266 266 265 266 266 266 267 267 267 267 267 268 268 269 270 271 271 271 272 271 271 271 271 271 270 270 270 270 269 269 268 269 270 269 268 268 269 270 270 270 269 267 266 266 266 268
280 282 281 280 281 285 287 287 287 287 287 287 287 286 285 284 283 283 283 282 280 279 278 278 278 277 277 276 276 276 274 273 272 271 270 269 268 269 268 267 266 265 265 264 264 264 265 267 268 268 267 266 266 266 267 268 268 270 270 271 271 271 271 271 271 270 270 270 269 269 269 269 269 269 269 269 269 269 269 269 269 269 268 267 266 266 265
273 277 279 279 278 280 281 282 283 285 285 284 282 281 281 280 281 280 279 279 279 279 279 278 278 278 278 277 276 274 273 272 271 270 270 270 270 269 269 268 268 267 267 264 262 262 263 266 267 267 266 265 265 264 266 268 269 269 270 271 271 270 270 270 269 269 269 268 268 269 269 269 269 270 269 270 269 269 269 268 268 267 266 266 266 265 265
271 272 274 275 276 276 275 276 278 281 280 279 278 279 279 278 278 278 278 279 279 279 279 279 278 276 275 275 274 273 273 273 272 272 272 272 272 270 268 268 268 267 265 263 263 263 263 265 265 265 265 265 264 265 265 266 267 269 269 269 269 269 269 269 268 268 268 268 268 269 269 269 269 269 269 269 268 268 267 267 267 267 266 265 264 264 264
270 271 271 272 273 273 273 274 275 276 278 277 276 276 277 278 278 278 276 275 276 276 275 274 275 274 274 273 273 273 273 274 273 271 267 264 262 260 259 259 260 261 262 263 262 262 263 264 264 264 264 264 264 264 265 265 266 268 268 269 269 269 268 268 268 268 268 268 268 268 268 268 268 268 268 267 266 266 267 267 266 266 264 263 262 262 262
268 267 268 269 269 269 268 268 269 269 271 274 275 275 276 276 276 275 275 274 275 275 275 275 274 272 271 271 269 268 268 267 265 264 263 263 262 261 261 260 260 260 262 262 262 262 263 263 263 263 262 262 263 264 264 265 266 267 267 267 267 267 267 267 267 267 267 267 267 266 267 267 266 266 266 265 265 265 264 263 263 263 262 261 261 261 262
266 266 266 266 265 265 266 265 265 266 267 267 269 271 274 275 275 275 274 274 275 275 275 274 271 269 268 267 267 266 266 265 266 266 267 267 266 265 262 259 260 260 261 261 261 261 262 262 262 262 262 261 261 262 263 264 266 266 266 266 266 267 266 267 267 267 267 266 266 266 266 265 265 265 264 264 263 262 262 262 261 261 261 260 260 261 261
265 265 264 264 263 264 264 265 265 264 265 266 267 268 268 269 269 268 268 268 268 269 268 268 267 266 265 265 264 263 261 260 260 259 260 262 264 264 260 259 260 259 261 261 261 261 261 261 261 261 261 261 261 261 262 264 265 265 265 265 265 265 265 265 265 265 265 265 265 265 264 264 263 262 262 262 261 261 261 261 260 260 259 260 261 261 261
264 264 264 263 263 263 262 261 260 260 260 262 264 265 267 267 267 268 268 267 267 266 266 266 265 265 266 266 264 262 261 261 260 259 259 259 259 262 262 260 259 259 261 261 261 260 260 260 260 260 260 260 261 261 262 263 263 264 263 264 264 264 264 264 264 264 264 264 263 263 262 261 260 259 260 259 259 259 260 259 258 259 260 259 258 259 260
263 263 263 263 263 263 263 263 261 260 258 259 261 262 263 264 265 265 265 265 266 266 266 266 267 267 266 267 266 265 264 264 263 263 262 261 260 259 259 259 259 259 260 260 260 259 259 259 259 259 260 260 260 261 262 262 262 262 262 262 262 262 262 262 262 262 261 261 261 260 259 260 259 258 258 258 258 257 258 258 257 258 259 258 258 258 259
261 262 262 262 262 262 262 261 259 257 258 259 259 259 260 260 260 261 261 261 261 261 261 261 260 261 262 262 261 259 258 258 259 264 265 262 260 259 259 258 259 259 259 259 259 259 258 258 259 259 259 260 260 260 260 260 260 260 261 261 261 261 261 261 260 259 259 259 258 258 259 258 258 258 258 258 260 258 258 258 258 258 258 258 258 258 258
259 260 261 261 261 262 262 262 262 262 262 261 258 257 257 257 257 257 258 258 258 258 259 259 260 260 259 259 259 259 259 258 257 256 257 260 262 259 259 258 258 258 259 259 258 258 258 258 258 258 258 259 259 259 259 259 259 260 260 259 259 259 259 259 258 257 257 258 258 258 257 257 257 256 256 256 256 257 258 260 259 257 256 256 256 256 256
258 258 259 259 260 261 262 262 262 262 261 259 257 256 256 257 257 256 256 257 256 257 257 257 257 258 259 260 261 261 260 258 258 258 258 257 257 257 257 257 257 258 258 258 258 257 257 257 257 257 258 258 258 258 258 258 258 258 258 258 258 258 258 257 256 256 256 256 258 258 259 258 256 255 257 257 256 256 256 257 256 255 256 258 257 258 258
256 257 258 259 259 259 259 259 258 256 256 255 256 256 257 257 257 257 257 257 256 256 256 256 256 256 257 257 257 257 258 261 261 259 258 257 258 257 257 257 257 257 257 257 256 256 256 256 256 256 257 257 257 257 257 257 257 257 257 257 257 256 255 255 255 255 256 256 256 254 255 254 254 254 255 255 254 254 255 255 255 255 255 255 255 255 255
255 254 255 255 256 257 257 256 256 255 255 256 256 257 258 257 257 257 257 257 257 256 256 256 256 256 256 255 256 256 256 256 260 259 258 257 257 257 256 256 256 257 257 256 255 255 255 255 255 256 256 256 256 256 256 256 256 256 256 256 255 255 255 254 254 253 253 253 254 255 255 255 253 253 253 254 255 254 256 255 254 254 254 255 255 256 256
254 253 253 252 252 252 253 254 254 254 254 255 255 256 257 258 256 256 256 256 256 256 256 255 256 256 256 256 256 256 255 256 256 256 256 256 256 256 256 256 256 256 256 256 255 255 255 254 254 255 255 255 255 255 254 254 254 255 255 255 254 253 254 255 257 257 255 255 254 255 254 254 253 254 255 254 254 254 254 254 254 257 259 258 256 255 255
253 252 252 252 252 252 252 252 252 253 253 254 254 255 255 254 254 253 254 255 257 256 256 255 255 255 255 255 256 255 256 256 255 255 255 255 255 255 255 255 255 255 255 254 254 254 254 254 254 254 253 254 253 253 253 254 253 253 254 253 252 253 253 254 254 253 253 254 254 253 253 253 253 252 252 253 254 254 254 255 254 254 253 253 254 253 254
253 253 253 253 253 252 252 252 252 252 252 252 253 253 254 255 254 253 253 253 253 254 256 256 255 254 254 254 254 254 255 255 255 255 254 254 255 254 254 254 254 254 253 253 253 253 253 253 253 253 253 252 252 252 253 254 252 252 251 253 253 252 253 253 253 253 253 253 253 253 253 253 252 252 253 252 253 253 254 253 253 253 253 253 253 254 252
Wind_Speed
8 9 11 16 13 13 15 19 17 19 17 17 18 20 21 11 11 18 25 14 14 21 12 8 8 8 8 9 8 8 8 5 5 5 6 7 7 7 8 8 7 6 6 7 7 7 7 6 6 6 5 5 4 5 5 6 7 7 6 5 5 5 5 5 5 5 4 3 4 3 3 2 3 3 3 3 2 1 1 2 2 2 1 2 2 2 0
8 10 11 13 15 11 13 16 18 18 19 21 22 21 17 14 14 20 21 6 17 21 10 13 10 7 6 4 3 4 5 7 7 7 7 8 8 8 8 7 7 7 8 7 7 7 6 8 7 6 5 6 6 7 7 6 6 5 6 6 5 5 6 5 5 4 4 3 3 2 1 2 2 1 1 0 0 0 1 0 0 0 1 1 2 3 3
9 10 12 11 15 15 15 17 19 18 16 18 22 22 19 17 20 22 23 17 19 19 6 9 8 7 2 5 6 8 8 7 8 9 8 7 7 7 7 7 7 7 7 7 6 7 8 8 9 9 8 7 7 6 6 6 6 6 7 6 6 6 6 5 5 5 4 3 2 1 0 0 0 0 0 1 0 0 0 0 1 1 1 2 3 3 4
9 9 13 15 12 13 14 14 18 19 21 21 23 23 23 19 20 23 20 16 18 20 6 4 5 5 7 9 9 8 7 8 8 9 9 8 8 8 8 8 8 9 9 8 8 9 9 9 8 7 7 7 7 8 7 8 7 7 7 7 7 7 6 4 4 4 4 3 2 1 1 1 1 1 1 1 0 0 0 0 0 0 1 2 2 2 3
13 13 9 9 7 5 7 17 23 29 29 27 23 19 15 14 20 21 19 22 27 3 7 7 5 7 8 10 10 9 9 10 11 11 10 10 9 10 11 11 12 11 11 11 11 10 8 8 9 9 9 8 9 8 9 8 8 8 7 7 6 6 5 5 5 6 5 4 3 3 2 2 2 2 2 1 1 1 0 0 1 1 1 1 1 1 2
13 11 8 7 10 17 19 20 28 27 23 21 17 19 23 23 20 16 19 22 13 4 5 10 11 13 12 10 9 11 12 11 8 8 8 9 10 10 11 13 14 12 9 8 9 10 11 10 10 8 9 10 9 8 8 7 8 7 7 6 6 5 5 6 6 6 6 6 5 5 4 4 4 3 2 2 1 1 1 1 1 1 1 1 1 2 2
8 9 12 8 17 17 13 0 8 14 20 21 26 26 22 20 21 25 25 25 20 10 6 8 9 8 8 7 11 11 11 11 12 12 10 9 9 11 13 13 11 9 10 8 8 6 7 8 7 7 7 6 6 6 7 8 7 8 7 7 6 6 6 6 6 7 7 6 6 6 5 5 5 5 4 3 2 2 3 3 2 2 2 2 1 1 2
4 8 12 11 13 4 3 4 15 16 17 18 14 19 23 27 30 30 27 25 19 14 17 13 7 6 6 7 12 16 14 11 9 8 9 9 8 12 14 15 13 11 10 12 11 12 8 7 8 8 9 7 8 7 6 8 8 7 8 7 7 6 7 7 7 7 7 6 6 6 6 5 5 5 4 5 4 3 3 2 2 2 1 2 2 2 1
8 5 11 12 3 4 1 2 9 18 22 22 20 19 25 22 11 9 17 24 20 17 18 10 7 6 4 8 16 17 16 9 8 11 9 10 14 17 15 10 11 12 12 12 12 7 7 9 9 9 6 7 7 7 7 7 8 7 7 7 8 8 7 6 6 6 6 6 5 5 6 5 4 4 4 4 3 3 3 3 2 2 2 1 1 2 2
7 9 7 5 6 13 11 20 11 10 4 7 11 13 24 9 15 20 23 25 24 23 17 15 9 5 6 13 23 18 8 8 7 6 8 14 17 15 12 8 8 8 8 7 7 10 11 10 9 7 8 9 9 8 8 7 8 7 7 8 7 7 6 6 6 7 7 6 6 5 5 5 4 3 3 3 3 3 4 4 3 2 2 2 1 2 2
10 9 13 10 13 17 14 18 12 7 5 10 9 4 20 15 20 23 25 29 26 20 17 11 9 8 13 21 22 9 15 7 9 12 18 21 22 15 12 12 12 10 10 11 11 8 9 10 8 8 9 10 10 9 9 8 7 8 9 8 8 8 7 6 6 7 7 7 6 6 5 5 5 5 4 4 3 3 2 3 2 2 2 2 1 1 2
8 12 11 14 6 12 16 9 13 17 12 13 11 5 17 29 25 28 23 24 23 16 12 11 13 15 17 27 5 11 14 17 18 19 20 22 20 16 13 8 9 10 6 6 6 9 11 13 9 10 10 9 9 10 9 7 8 10 10 7 6 6 7 7 7 6 5 6 6 7 6 5 4 4 3 4 3 3 3 3 3 2 2 2 1 0 0
5 10 8 2 5 8 2 9 14 16 16 14 13 18 25 26 5 17 20 25 20 13 14 14 16 22 23 17 9 16 13 15 15 17 20 21 21 18 13 12 9 6 9 12 14 15 13 9 10 10 10 10 9 8 8 8 11 9 6 7 7 7 7 7 7 7 5 6 7 5 6 6 5 4 4 4 4 4 3 3 3 2 2 1 1 0 0
9 6 8 9 5 5 4 8 18 18 15 13 20 25 10 10 14 18 20 20 17 12 15 14 16 19 16 12 6 10 13 16 19 20 20 19 16 11 8 10 7 7 7 7 6 5 6 11 11 11 11 11 9 8 8 10 8 6 7 8 8 8 8 8 7 6 6 5 6 6 5 6 6 5 4 5 5 5 4 4 3 3 2 1 0 0 1
1 3 3 2 10 6 15 15 15 14 15 21 14 4 7 3 6 8 8 14 13 15 15 18 19 20 16 15 17 17 16 15 14 10 11 16 18 15 8 6 7 10 7 8 10 11 8 8 9 9 10 10 8 8 10 8 6 8 8 9 9 9 8 7 7 7 7 7 6 6 6 7 7 7 6 6 5 5 5 5 4 3 3 2 1 0 1
7 9 12 9 4 4 10 20 15 19 16 4 3 1 4 1 5 7 9 5 6 10 14 14 17 18 18 18 13 9 10 13 11 9 13 16 16 10 9 11 12 12 12 10 9 6 6 7 8 9 11 11 9 10 9 7 8 8 9 8 9 9 9 8 8 7 7 6 5 5 6 6 6 7 6 5 5 5 5 5 4 4 3 3 2 1 1
9 9 9 8 2 6 13 16 10 10 13 5 5 0 4 3 1 2 9 8 6 11 14 13 13 14 13 14 15 14 16 14 14 16 18 16 13 10 10 10 9 9 12 11 8 6 5 7 6 8 7 11 10 11 8 8 9 10 9 9 9 9 8 8 7 6 6 5 5 4 4 5 5 5 5 5 4 3 4 3 3 3 3 3 3 1 1
6 11 9 6 11 9 8 10 8 7 10 7 2 1 1 1 4 7 6 7 9 8 10 12 10 13 14 14 14 13 15 14 13 11 7 6 6 6 6 5 7 8 6 7 9 10 6 6 7 6 7 9 14 10 8 8 8 9 10 10 9 8 8 7 7 7 7 6 5 5 4 4 4 5 5 4 4 4 3 3 3 3 3 3 3 2 3
7 11 13 17 15 14 10 9 8 7 4 1 1 1 1 1 0 2 0 4 8 10 9 12 14 14 11 13 15 16 10 6 6 8 11 10 9 10 10 9 9 7 8 9 10 10 9 5 6 5 6 4 5 7 8 7 7 8 8 9 9 8 8 7 7 7 7 6 5 5 4 4 4 4 4 4 4 4 4 4 3 3 3 3 3 4 4
13 13 14 13 19 16 8 13 15 15 10 1 1 2 2 1 0 1 1 1 1 3 6 8 10 13 13 13 14 11 9 10 10 10 10 9 6 6 5 7 8 8 10 11 11 10 10 7 5 4 4 4 5 6 6 7 7 8 8 9 9 9 8 7 7 7 7 8 7 5 5 5 5 5 4 5 5 5 6 5 5 4 4 4 4 4 4
10 13 17 9 6 8 17 18 9 2 1 3 0 1 1 1 1 1 1 2 5 5 11 10 10 10 12 12 13 12 10 7 7 9 10 10 10 8 8 8 10 13 12 11 11 11 9 6 6 5 5 5 5 6 6 7 8 10 9 8 9 8 8 7 7 7 7 7 7 7 6 5 5 6 7 6 6 5 4 5 6 6 5 5 4 4 6
13 15 18 13 11 15 18 17 11 6 5 4 3 4 4 7 9 10 10 8 3 4 4 4 6 10 13 11 7 9 9 8 7 6 7 7 8 7 5 6 7 6 7 10 11 10 9 8 7 7 6 5 5 5 6 6 8 10 10 10 9 8 7 7 7 7 7 7 7 7 7 7 6 3 2 6 6 6 4 4 7 6 6 3 6 4 3
14 16 22 16 13 18 16 4 10 15 13 12 14 13 11 8 6 4 3 5 5 7 7 4 6 8 10 12 4 5 5 7 7 10 10 9 8 8 7 8 5 6 7 9 10 10 10 9 9 8 8 6 6 5 5 6 8 10 10 10 8 7 7 7 7 7 7 7 7 7 7 6 6 6 3 0 2 5 6 5 4 5 5 5 5 4 4
17 20 18 11 9 15 15 8 8 12 10 10 12 12 9 9 8 6 6 7 9 10 9 7 8 11 10 8 5 8 7 5 5 6 7 8 8 7 7 9 11 11 11 11 12 12 10 10 10 9 8 6 5 5 6 7 8 9 9 10 9 8 7 7 7 7 6 6 7 7 7 6 7 6 6 5 2 4 5 5 5 4 3 4 3 4 4
18 19 15 8 7 13 12 6 11 11 11 14 16 16 13 9 8 7 9 10 10 12 11 11 9 9 9 6 5 7 6 5 5 6 7 7 7 9 8 7 10 11 11 10 10 11 11 11 11 9 9 5 4 5 5 7 8 9 8 9 9 8 8 8 7 7 7 7 6 6 6 6 6 6 6 6 7 4 0 1 3 5 6 5 5 4 4
19 18 3 5 8 11 8 5 6 7 11 12 11 10 11 13 15 13 13 14 12 8 8 9 9 5 8 6 5 4 4 5 4 6 7 8 7 7 9 11 10 8 10 10 11 11 12 12 12 10 9 5 4 5 5 6 7 7 8 8 8 8 8 8 8 7 7 6 6 5 4 4 4 4 4 5 6 6 6 2 1 1 2 4 5 4 4
19 13 4 6 5 10 9 14 11 7 8 9 13 15 15 15 17 16 13 9 7 6 7 8 7 3 3 4 5 5 9 5 4 5 5 6 8 8 7 7 9 11 11 11 10 11 13 13 11 10 9 5 4 5 6 7 9 9 9 8 7 8 10 7 6 6 6 6 6 5 5 5 5 5 5 4 4 4 5 4 2 1 1 1 2 4 2
18 14 10 16 14 12 9 10 9 7 10 13 13 15 15 13 9 8 9 9 8 6 4 3 4 5 4 3 6 4 5 7 9 6 6 6 5 6 7 9 10 11 11 11 11 11 11 11 11 11 8 4 4 5 7 9 10 9 9 8 8 7 6 8 7 7 7 6 6 6 5 6 5 5 5 5 5 3 3 2 2 1 1 0 1 3 3
17 17 15 17 19 16 6 4 2 3 6 8 9 10 8 8 9 11 13 14 13 7 6 4 2 6 8 7 7 9 8 7 8 9 7 6 7 8 10 10 10 9 10 11 10 9 10 10 10 11 7 4 4 6 8 9 9 9 9 8 8 7 7 7 7 7 7 6 6 6 5 5 5 5 5 4 4 3 4 2 1 1 1 1 3 5 3
16 15 16 15 13 6 6 7 9 8 9 10 11 10 10 12 11 11 12 11 7 10 9 4 4 5 5 7 7 10 12 11 9 6 5 5 7 9 10 11 12 9 10 9 9 8 9 9 10 10 7 4 5 7 9 10 9 9 9 8 8 8 7 7 7 7 7 6 6 6 6 5 6 6 4 5 4 3 3 2 2 1 1 2 3 2 1
11 8 6 6 6 6 11 13 12 13 13 10 11 11 8 6 10 11 10 7 5 7 6 8 8 7 6 7 4 4 6 9 10 8 6 5 6 8 9 8 13 13 11 11 9 9 10 10 9 8 4 4 5 7 9 10 9 9 8 7 7 8 10 10 8 7 7 7 6 6 6 6 6 6 6 5 4 3 3 3 1 1 1 1 1 1 2
13 10 11 10 9 11 11 9 9 10 11 8 7 9 11 11 12 15 12 9 13 13 9 7 8 9 8 7 7 8 9 10 10 9 7 7 8 5 4 5 7 10 11 10 9 9 9 10 10 6 4 4 4 5 7 9 8 9 8 7 8 7 8 10 7 8 7 6 7 7 6 6 6 6 4 4 4 3 2 2 1 0 0 0 1 2 2
17 14 10 6 5 6 9 8 8 9 7 7 11 13 12 12 13 14 13 9 5 5 8 9 6 6 7 9 10 10 11 10 9 9 8 6 6 8 9 9 8 9 9 8 8 7 9 11 9 6 5 5 5 5 5 6 7 8 7 7 7 7 7 7 8 7 7 7 6 6 6 6 5 5 5 5 4 4 2 2 1 0 1 1 2 3 2
21 19 18 16 18 16 14 14 10 10 10 10 10 7 6 6 7 6 4 4 6 7 7 6 7 7 8 9 11 12 13 14 11 10 8 8 9 10 10 10 10 11 10 8 8 8 7 8 7 7 7 7 6 6 6 7 7 7 7 8 8 7 7 6 7 7 7 6 6 6 6 5 6 5 5 4 2 2 2 2 1 0 1 1 2 3 3
6 7 7 11 13 14 12 13 13 13 11 9 7 7 8 7 6 6 4 6 8 7 6 9 9 9 10 10 11 11 11 11 12 12 10 9 10 10 11 13 13 13 13 10 9 7 6 6 7 7 8 7 7 6 6 6 6 7 6 7 8 7 7 6 7 7 7 7 6 6 6 5 5 5 5 3 2 2 1 1 1 1 1 1 2 2 2
3 5 4 3 2 6 8 7 7 10 10 10 10 8 7 6 5 5 6 5 5 8 10 10 10 10 10 10 10 10 9 10 12 11 11 11 10 10 11 12 13 14 13 11 8 5 5 5 8 9 7 7 7 6 5 6 5 6 7 7 7 7 7 7 7 7 6 6 6 6 5 5 5 5 4 3 2 1 2 0 0 1 1 1 1 1 2
2 2 2 0 1 0 3 4 6 8 8 7 6 6 5 4 4 4 7 8 8 8 10 11 11 12 11 8 8 9 9 9 10 11 11 11 10 10 11 10 10 11 12 11 3 3 4 6 8 10 7 6 6 5 5 7 6 6 6 7 7 7 7 7 7 7 6 6 6 5 5 4 4 4 3 3 1 1 1 1 1 0 0 1 1 1 3
3 3 2 2 2 4 5 4 1 7 10 9 6 5 7 8 7 8 8 8 9 9 9 9 10 10 11 12 12 12 11 10 12 12 12 11 10 12 9 8 6 5 9 6 3 4 4 7 9 7 6 6 6 5 5 8 8 6 6 6 6 7 6 7 7 6 6 5 4 5 4 4 4 4 3 4 2 2 1 0 0 0 1 1 1 2 3
3 3 4 5 5 7 6 7 8 6 5 11 10 8 7 10 10 11 10 9 8 9 12 12 13 14 13 15 14 12 12 11 11 11 11 11 11 16 13 7 6 5 6 5 6 4 5 5 6 7 6 6 6 6 7 8 9 7 6 6 6 6 6 6 6 6 5 4 5 4 4 4 4 4 3 2 2 2 0 0 1 1 1 3 3 4 3
5 5 4 4 7 6 9 10 10 10 9 7 9 10 8 11 11 12 11 11 9 10 12 13 15 14 14 14 15 13 11 11 10 12 14 13 14 14 12 11 9 7 7 7 5 6 7 8 7 7 5 3 4 5 6 7 6 5 5 5 6 5 6 5 6 6 5 5 5 4 3 3 4 3 3 2 1 1 1 0 0 1 1 1 2 2 3
6 5 6 8 8 8 8 12 11 10 11 11 10 8 7 9 11 13 12 11 10 10 12 13 15 12 13 14 15 13 12 11 10 10 10 12 10 5 11 9 3 4 4 4 4 6 7 4 3 4 5 5 4 3 4 6 5 4 5 5 5 5 6 5 5 5 4 5 3 4 4 4 4 3 2 2 1 0 0 0 1 1 1 2 3 3 3
7 8 9 10 9 9 10 9 11 16 14 11 11 11 11 10 12 13 11 11 12 12 13 12 14 15 14 13 15 16 13 11 14 16 14 9 7 9 13 6 3 1 2 5 5 5 5 6 5 3 3 5 5 3 4 3 4 4 5 5 5 5 5 5 5 4 3 3 4 4 3 4 4 2 1 2 1 2 1 1 1 1 1 2 2 3 3
8 9 10 9 10 10 10 13 15 14 10 13 11 11 11 11 12 13 14 14 14 15 14 12 14 15 15 15 13 13 10 9 11 11 11 12 15 11 8 9 4 3 4 4 5 5 4 4 6 5 3 3 4 7 5 3 3 4 4 4 4 5 5 5 5 4 4 4 3 4 4 3 2 2 2 1 2 1 1 1 1 2 1 2 2 2 2
9 10 10 10 10 10 12 13 13 15 19 12 12 13 14 14 13 14 15 14 14 12 14 13 13 13 12 10 10 9 7 6 7 6 10 9 9 11 12 6 5 4 6 5 5 6 6 4 4 7 8 5 4 5 4 2 3 3 4 4 5 4 5 5 4 4 4 3 3 2 3 3 1 1 1 1 1 0 0 0 1 1 1 2 2 2 3
11 11 11 13 12 12 12 12 13 14 12 13 14 15 16 16 16 14 14 16 17 14 12 12 14 13 12 11 10 7 6 6 5 3 8 6 9 2 1 3 5 3 4 7 6 5 5 5 4 4 4 6 5 5 3 4 4 4 4 4 4 5 4 4 4 3 3 2 1 1 2 1 0 0 0 0 0 0 1 1 1 1 1 2 2 2 3
11 12 12 13 14 14 12 12 12 12 15 19 19 14 13 11 11 12 13 14 15 12 11 11 12 11 11 10 10 9 8 7 7 7 6 4 4 5 5 2 4 5 6 6 6 6 4 5 7 4 4 4 6 4 4 4 5 4 4 4 5 4 4 4 3 2 1 2 1 1 1 0 1 0 0 0 1 0 1 3 3 2 3 3 2 2 2
9 11 13 15 15 13 13 11 10 11 15 19 16 10 8 10 10 9 10 15 15 12 11 10 10 10 8 8 5 5 6 6 7 7 6 5 7 7 5 5 5 6 7 3 4 4 3 3 3 6 6 6 6 5 4 3 3 5 4 5 4 4 4 4 3 1 1 1 2 3 2 1 0 1 2 1 1 1 1 1 1 2 2 3 1 4 3
9 12 13 16 16 11 7 10 13 17 15 14 8 7 6 9 11 11 10 11 12 11 10 9 7 7 8 9 8 7 4 5 11 7 5 4 4 4 4 4 3 7 7 9 7 6 8 9 6 5 7 7 4 4 5 4 4 4 5 4 4 3 3 4 2 2 1 1 1 1 0 0 1 0 1 1 1 1 1 1 2 2 2 2 2 3 3
11 10 9 9 11 11 12 11 12 12 9 6 8 6 5 6 8 9 9 8 10 9 9 9 10 8 6 7 8 6 5 5 4 5 3 3 2 4 3 4 6 5 4 4 5 3 4 6 8 7 7 6 4 3 4 4 3 3 3 4 4 3 3 3 2 3 2 1 1 0 0 0 1 1 2 3 3 2 3 3 3 2 2 3 3 4 2
10 9 11 11 10 12 11 10 10 7 5 6 7 6 5 3 9 8 6 6 6 6 6 6 6 7 7 4 4 6 7 6 6 6 5 4 5 4 3 3 3 6 4 4 4 5 5 6 5 8 7 4 3 4 3 4 5 3 2 3 3 3 2 3 2 2 1 0 1 1 1 1 2 2 4 2 2 2 3 3 3 5 6 5 5 3 3
9 10 8 7 8 8 11 10 7 6 6 6 6 5 6 8 8 6 6 5 4 5 5 5 5 5 6 5 2 2 4 6 5 3 3 2 4 4 3 3 2 3 4 3 3 2 4 2 3 2 4 5 3 3 3 3 2 4 3 1 1 2 1 2 1 0 1 1 1 1 1 2 2 2 3 3 3 4 4 5 4 4 4 3 4 4 5
9 8 6 6 7 8 8 9 9 8 7 6 5 5 5 5 5 5 6 8 6 5 4 4 4 4 4 5 5 1 0 3 4 4 2 1 1 3 4 4 2 2 3 5 4 2 2 4 5 3 3 2 4 5 4 3 1 0 1 3 0 0 1 1 2 1 1 1 1 2 3 3 3 4 5 4 4 4 4 4 4 4 4 4 5 4 4
Wind_Direction
199 166 154 155 169 184 185 190 188 193 188 193 204 213 221 192 199 223 234 222 236 249 212 221 219 209 203 199 198 198 189 172 159 160 177 188 194 194 193 195 189 188 192 199 197 193 192 180 186 193 190 186 172 180 185 178 171 179 178 180 187 193 203 211 207 198 200 201 201 203 210 222 229 236 237 240 252 257 245 263 268 268 261 232 208 214 179
191 171 164 164 169 175 180 187 191 193 191 198 208 221 219 207 223 235 247 201 229 244 217 208 216 216 201 203 141 118 136 167 176 182 196 200 203 201 198 198 199 197 200 197 196 183 180 187 190 192 193 190 190 188 193 184 174 172 162 187 192 201 209 209 197 189 191 175 172 180 188 218 240 261 301 356 27 1 318 293 289 141 152 145 171 183 172
202 197 182 172 173 172 187 190 190 190 193 203 212 218 218 209 230 238 242 236 252 251 174 206 199 202 140 101 146 180 193 182 185 192 204 207 206 207 207 204 208 210 209 202 187 181 191 191 195 194 193 190 191 196 191 183 178 170 163 182 194 201 210 193 186 180 160 150 131 160 250 20 41 46 36 45 52 64 47 54 179 188 149 165 191 188 187
210 204 190 188 177 178 183 189 188 189 193 204 209 214 211 200 216 229 238 246 243 255 152 233 178 159 153 173 187 200 208 205 192 196 201 200 204 202 206 211 213 212 210 201 190 194 198 198 194 189 187 185 179 200 187 186 178 166 170 185 192 200 195 180 173 158 149 139 141 140 101 84 76 74 85 80 64 82 130 202 335 80 189 217 207 202 195
211 201 172 166 145 117 196 203 194 196 201 205 209 219 215 209 214 221 221 228 230 122 136 202 198 196 195 191 194 199 214 212 200 198 198 197 202 203 199 207 216 215 208 201 196 202 195 190 193 199 179 170 194 190 184 185 159 168 177 182 189 191 185 172 167 154 150 150 151 150 146 135 131 110 112 124 128 126 115 72 115 153 252 169 216 226 199
209 180 141 123 153 203 213 208 201 193 199 200 208 215 215 214 212 227 226 237 237 214 219 187 204 204 205 199 210 199 196 208 214 208 202 201 202 207 212 211 210 213 213 216 211 201 194 193 191 184 180 186 193 180 168 154 159 168 167 182 184 187 176 178 170 166 160 156 164 164 149 140 133 131 132 141 147 143 128 113 138 162 179 202 188 199 210
196 132 129 172 211 217 228 307 147 190 199 200 209 219 218 216 218 231 238 238 236 212 209 204 211 217 222 204 213 223 218 204 202 194 195 204 205 210 220 223 219 207 206 212 215 209 198 186 175 164 185 178 154 147 152 154 162 161 172 172 186 185 183 181 172 171 167 166 165 158 152 146 142 145 145 137 142 149 150 160 162 179 190 198 208 196 210
78 158 169 202 223 218 349 150 162 187 200 210 209 238 232 220 215 218 230 239 237 221 225 219 212 217 229 238 232 224 213 201 184 170 199 211 207 219 220 217 213 202 202 203 201 208 194 158 176 180 181 163 150 160 150 155 161 165 165 174 184 184 190 188 181 176 169 168 163 154 152 151 151 156 157 161 161 158 148 153 149 144 159 169 191 196 181
173 166 179 204 40 22 204 185 189 174 197 197 194 221 238 227 230 234 243 246 239 232 234 220 220 214 229 252 248 228 212 192 174 173 197 207 220 224 226 207 207 204 203 200 203 185 168 184 176 193 166 157 150 148 155 163 162 167 166 181 190 189 191 183 179 171 167 162 162 157 156 154 164 169 169 162 158 150 147 152 153 159 169 146 154 173 186
173 156 182 208 234 235 207 220 209 186 167 153 191 211 258 197 202 212 224 232 229 225 220 213 198 138 197 245 249 221 179 173 189 205 220 230 228 225 226 214 212 203 200 191 178 171 183 189 189 163 157 158 155 158 168 166 165 173 177 197 189 185 186 178 171 163 160 160 161 160 158 169 174 171 156 159 169 163 163 161 170 170 144 133 115 137 162
173 186 193 198 210 230 221 221 186 154 121 105 97 176 260 231 208 215 215 227 227 219 213 195 128 147 213 239 246 109 150 180 187 208 228 234 239 233 218 206 210 208 205 189 182 173 169 181 191 166 159 157 156 172 176 176 173 178 197 196 181 181 179 169 165 161 161 162 161 160 165 175 171 168 175 170 151 150 148 143 155 144 141 148 135 134 155
204 183 193 211 202 228 230 211 144 161 125 116 86 198 251 251 202 213 207 224 226 211 201 149 173 192 218 234 228 136 153 193 197 207 221 231 238 236 226 216 198 199 172 122 141 169 179 197 172 159 156 159 172 176 183 169 177 198 202 184 165 157 164 166 162 157 157 160 161 163 170 164 166 168 148 138 151 150 144 137 135 123 129 136 163 184 120
211 209 222 267 269 263 320 124 143 142 126 120 178 216 232 258 193 195 204 221 220 190 193 172 200 216 221 229 145 174 182 195 209 214 218 224 228 229 220 218 202 162 174 177 180 187 193 173 161 161 157 158 181 188 171 172 200 200 172 153 152 156 154 153 156 159 160 161 159 164 163 163 155 143 152 150 143 144 142 127 120 117 122 122 123 125 78
194 200 216 230 267 253 117 151 137 137 136 193 209 221 249 66 145 174 197 213 214 181 198 203 215 230 229 232 177 188 193 198 211 213 216 226 235 234 220 209 179 175 176 190 184 188 177 166 167 164 162 170 181 170 171 198 200 163 151 147 147 149 149 152 153 152 149 149 152 154 152 143 145 146 146 144 148 146 145 142 141 132 119 118 107 18 28
69 171 198 209 237 228 151 143 145 163 178 213 216 21 358 40 117 170 186 201 201 181 201 206 215 228 229 225 214 208 213 217 222 220 222 228 232 228 214 196 194 173 177 185 194 191 176 166 163 165 161 170 174 171 187 197 168 152 146 148 146 145 146 147 150 149 147 149 151 151 155 156 150 149 147 142 143 144 145 138 136 131 121 112 103 42 33
196 193 199 208 182 342 148 145 184 203 194 58 60 150 287 322 115 134 171 210 196 188 200 205 219 224 228 233 235 231 232 236 235 220 220 226 233 224 209 196 186 179 192 192 186 172 164 160 164 166 168 171 172 175 190 173 153 144 144 144 142 142 147 147 146 146 146 146 145 150 153 149 145 141 143 138 136 147 144 142 142 139 135 132 131 147 227
203 204 221 233 219 190 182 194 202 207 239 277 31 64 161 144 125 137 142 186 193 184 195 206 210 227 232 233 231 225 230 223 221 220 223 220 220 202 188 194 183 179 182 179 163 154 165 160 163 169 175 168 169 178 182 159 154 150 145 143 140 141 142 142 141 139 129 130 133 135 139 139 134 132 129 133 129 132 131 130 131 132 126 130 141 149 178
230 255 238 235 240 240 244 232 220 207 209 228 188 160 197 240 176 161 163 187 187 196 191 191 217 219 223 225 237 234 235 227 224 222 224 227 210 190 170 148 165 176 155 148 156 162 163 165 162 172 179 170 171 180 159 159 153 146 142 138 136 134 131 129 132 129 125 122 122 124 127 125 127 134 138 139 128 127 126 125 127 133 132 136 150 171 211
183 239 229 239 243 242 239 269 295 294 259 267 222 310 305 245 166 186 116 160 191 196 194 196 205 216 218 223 229 233 239 227 211 198 204 208 190 174 182 187 154 147 155 159 170 168 166 170 163 169 165 168 151 141 157 146 140 136 133 129 126 126 126 124 122 124 126 126 123 118 117 110 109 117 125 132 127 131 149 150 153 157 166 170 180 196 220
212 244 237 228 239 245 235 225 237 247 260 354 72 154 160 185 162 133 180 96 303 228 221 216 209 219 222 220 232 236 223 211 202 202 201 195 196 213 181 158 163 155 166 173 170 166 166 164 150 138 126 124 127 127 125 131 134 129 125 130 132 130 127 127 129 132 130 129 130 131 135 138 137 139 149 153 152 162 169 173 170 183 185 192 197 202 217
242 261 261 249 290 265 244 239 238 1 120 149 19 84 113 14 4 334 332 211 207 178 211 208 210 226 238 224 225 229 227 212 199 196 196 194 190 171 162 180 173 177 175 170 168 159 147 140 132 122 106 97 108 118 128 136 138 128 124 118 118 121 125 125 133 134 134 141 143 144 150 146 156 164 164 168 167 170 182 178 180 179 185 193 193 198 190
223 225 239 219 231 249 244 234 208 192 197 151 198 198 207 211 214 217 213 230 230 278 279 240 221 220 236 240 225 232 226 211 200 191 189 187 182 190 188 165 175 164 163 155 148 141 131 131 131 125 115 104 100 121 132 135 132 126 125 121 120 123 127 132 136 134 137 140 141 147 152 151 130 85 102 151 166 157 174 145 130 132 138 159 164 148 150
235 232 239 229 224 247 257 237 191 207 202 202 212 218 222 234 242 252 233 267 284 250 245 208 199 225 236 253 222 239 246 227 202 188 176 173 183 182 164 149 147 143 136 131 127 125 134 135 135 131 119 111 113 122 128 124 124 125 127 124 122 126 130 140 144 141 141 138 141 145 153 151 149 146 142 53 143 144 143 140 129 119 121 137 159 175 151
244 246 247 231 212 239 251 232 211 215 206 198 220 230 223 222 227 216 203 212 224 249 245 235 215 221 229 236 192 221 231 220 188 189 186 180 173 159 161 166 152 140 139 142 143 140 138 135 130 125 115 114 120 124 125 127 129 129 131 132 137 143 138 142 138 136 142 144 143 142 147 149 151 150 147 154 217 244 199 193 185 179 165 167 164 177 195
242 241 246 233 210 238 248 209 212 205 202 200 213 221 219 225 237 222 218 229 222 224 240 244 234 215 224 237 201 215 211 211 197 176 159 148 148 156 160 152 158 152 148 141 133 132 132 130 125 122 117 116 115 114 119 128 133 128 131 131 135 136 136 139 137 136 140 146 150 147 150 149 152 150 153 153 154 166 323 282 203 200 203 205 212 215 226
243 251 233 201 197 224 226 220 250 212 208 204 213 225 224 216 221 219 223 226 235 225 232 249 261 229 184 206 195 180 157 170 156 138 141 148 148 153 167 166 155 138 131 130 132 132 130 129 128 124 119 123 123 126 121 121 115 112 115 122 127 134 142 142 136 137 140 143 139 139 135 135 137 140 136 134 131 130 140 117 41 324 255 232 230 231 232
242 241 197 265 235 236 207 206 232 217 212 200 202 215 218 220 219 221 226 229 234 232 223 236 237 230 151 169 152 168 169 143 115 142 154 157 169 174 155 134 134 132 128 125 125 129 129 127 125 122 121 131 136 123 116 114 105 98 98 103 106 113 119 122 123 123 122 117 117 115 119 122 127 124 124 116 118 128 133 136 128 105 347 337 279 210 206
237 231 192 230 234 223 231 233 233 192 194 200 208 216 223 224 225 228 238 245 247 238 222 182 166 157 163 169 145 115 118 149 162 159 150 162 147 132 132 126 124 127 126 125 126 130 128 125 124 120 117 130 128 120 112 108 102 102 104 104 104 101 99 104 102 100 102 104 107 115 119 120 120 118 117 116 120 119 109 113 117 100 1 348 29 305 228
234 232 222 226 233 232 217 197 161 176 211 226 222 223 212 205 215 215 223 224 225 211 222 228 178 178 173 180 161 163 160 155 157 168 160 145 142 131 126 123 117 115 118 120 120 123 123 122 121 114 114 127 120 111 110 108 109 112 114 115 114 109 104 106 110 111 108 105 108 114 116 115 112 107 100 96 85 79 84 94 77 60 125 339 6 347 354
240 233 229 228 226 186 171 189 200 208 209 211 209 217 205 201 212 222 223 226 200 205 216 155 157 193 175 175 190 178 175 170 150 116 124 144 134 128 126 124 111 99 102 108 119 120 116 116 114 114 128 141 128 120 117 115 115 116 116 120 124 127 129 129 124 122 116 117 117 111 102 99 98 103 102 97 99 103 100 81 97 109 20 335 9 6 27
242 244 236 214 200 204 204 208 205 208 209 210 206 207 211 199 216 226 229 217 189 214 187 183 188 174 173 173 148 108 99 103 110 120 125 131 123 125 133 143 142 150 145 138 130 124 118 113 109 111 127 130 130 125 124 121 120 115 109 110 113 123 126 127 122 121 123 119 116 111 108 103 104 102 104 104 97 96 88 99 83 65 27 18 356 333 300
232 215 198 202 206 210 219 223 218 215 216 203 189 200 202 196 207 222 222 202 209 204 183 169 179 181 164 139 127 117 115 115 116 121 134 135 124 111 101 88 90 107 115 118 120 122 118 113 106 109 107 107 108 116 119 122 123 121 125 128 123 121 114 111 106 111 114 119 121 118 121 119 118 114 106 110 114 112 107 101 68 69 45 41 323 305 297
226 217 225 224 227 231 233 232 217 227 210 195 208 211 211 207 212 216 218 206 172 160 179 191 174 146 139 132 127 123 118 116 115 120 129 125 102 99 96 94 97 101 98 94 102 105 112 113 115 114 103 99 93 96 106 116 119 122 124 123 120 115 112 112 118 115 111 111 110 117 116 111 115 110 113 105 98 99 98 99 102 58 331 286 264 278 297
209 213 216 204 198 209 218 231 221 219 216 214 214 220 232 231 231 237 203 151 162 174 181 163 140 132 128 131 131 131 131 127 132 142 140 126 115 103 100 98 96 90 85 84 83 86 89 98 106 107 106 98 91 91 100 105 112 112 121 122 120 119 117 120 119 116 114 103 104 96 94 94 91 96 96 106 113 112 106 110 104 140 225 291 288 278 305
294 275 240 210 210 220 222 223 214 207 201 203 221 221 215 209 206 210 182 167 180 172 136 123 131 132 131 133 137 146 150 144 138 133 129 119 112 106 104 103 99 91 79 62 60 60 69 89 93 95 93 88 85 82 92 100 107 113 118 119 119 120 120 116 110 110 112 115 112 108 103 100 100 98 95 94 86 88 101 125 163 192 210 275 282 311 321
294 258 270 296 255 206 203 197 187 193 203 210 215 207 195 188 170 160 163 160 120 123 132 132 131 130 133 139 143 148 136 126 127 124 121 116 114 114 110 105 104 99 95 77 38 35 49 82 93 96 95 93 87 75 85 100 105 111 117 117 114 110 104 102 103 97 96 103 107 104 106 105 105 103 107 98 102 106 121 118 184 255 222 249 273 319 309
0 284 252 125 327 1 163 166 177 172 180 180 162 148 144 134 128 106 103 113 124 126 130 129 130 135 137 125 106 100 104 116 120 123 123 123 118 112 110 106 101 111 107 96 52 39 40 69 89 93 87 83 85 82 69 87 105 104 107 107 109 111 112 108 103 103 100 95 99 106 113 114 116 125 122 120 110 103 110 144 297 324 290 268 298 297 298
10 28 44 73 79 75 43 9 49 126 121 99 85 109 128 122 117 116 114 114 118 126 125 123 121 114 108 106 104 108 111 115 120 122 125 121 121 105 82 85 80 81 90 92 91 69 59 70 72 77 79 74 70 73 64 69 79 88 93 97 104 109 111 112 112 108 106 106 106 107 110 112 117 107 115 117 125 140 161 149 170 192 270 321 310 308 292
43 34 54 59 73 74 70 46 43 39 89 120 114 101 106 115 115 110 104 98 99 109 111 113 115 111 114 116 116 113 112 117 115 106 91 81 80 85 78 62 48 44 76 85 82 73 71 72 70 73 80 76 64 53 62 68 74 77 84 95 98 103 103 105 105 108 106 109 107 111 109 109 111 116 101 100 101 81 80 179 207 244 267 274 272 273 277
40 38 35 50 66 63 72 70 57 52 43 61 103 114 123 116 114 111 109 104 104 112 119 124 120 119 116 112 108 99 93 92 96 101 106 109 106 104 96 69 45 24 47 65 65 65 68 83 82 70 75 73 71 65 50 61 75 81 83 91 96 95 97 101 105 109 112 112 113 117 118 120 113 112 113 111 115 164 169 64 78 327 276 301 303 293 303
49 58 59 68 67 64 76 80 72 59 55 53 51 58 73 108 115 109 107 110 108 106 109 116 115 99 101 107 103 97 94 84 81 102 124 119 99 92 101 99 45 36 36 60 65 65 62 63 105 93 63 58 104 80 62 54 74 92 87 85 95 98 100 97 103 104 109 110 113 115 119 115 115 126 134 118 120 123 149 216 219 240 248 275 285 292 293
63 68 79 68 66 76 79 81 86 74 54 53 54 59 60 66 86 94 95 91 86 83 84 83 95 105 108 102 101 99 86 74 73 60 52 59 90 124 105 94 101 75 85 86 85 79 70 66 71 96 83 51 54 57 86 79 61 83 90 83 85 89 94 94 97 96 94 98 106 107 104 115 127 129 128 149 185 221 221 228 241 261 275 281 279 280 282
62 73 75 71 74 74 80 76 69 78 79 48 47 51 62 67 80 88 89 88 91 95 91 95 100 100 103 103 97 87 85 88 86 87 72 57 45 32 97 133 111 65 79 95 84 91 80 59 49 60 116 130 47 50 68 96 66 62 81 96 88 84 88 96 94 101 110 120 114 124 127 134 141 162 173 191 203 209 205 238 252 262 276 279 285 302 322
66 70 72 74 78 82 83 83 85 76 68 49 51 58 61 64 66 81 89 92 91 91 98 97 96 94 90 93 87 87 88 91 96 97 96 89 75 48 43 87 133 105 72 78 83 71 72 86 63 49 54 86 125 97 69 107 131 86 63 78 95 87 78 94 105 101 105 113 126 135 146 148 144 171 168 185 216 282 328 277 268 283 288 311 318 321 312
59 68 71 74 80 81 84 86 79 76 87 89 75 65 66 69 69 69 79 84 85 82 78 79 70 75 82 81 82 76 67 44 21 17 91 91 88 150 108 46 68 128 95 75 78 88 67 66 102 98 68 67 94 126 100 66 82 117 92 71 79 98 98 94 98 106 107 96 88 90 76 100 147 115 89 326 169 220 255 249 260 285 347 309 296 288 285
61 70 76 82 80 81 87 97 103 102 97 86 74 56 47 51 57 54 51 66 71 65 72 78 79 74 80 87 90 90 81 64 56 43 29 12 84 121 154 152 50 54 105 101 70 81 127 100 74 94 124 94 74 91 125 78 59 90 121 93 78 91 102 101 97 91 103 122 113 93 99 102 69 30 24 173 225 220 294 303 299 284 272 263 263 264 272
61 58 59 71 76 78 84 93 102 91 78 66 56 49 30 39 51 57 57 63 72 72 69 67 67 64 54 51 70 98 94 83 57 39 52 70 63 61 72 95 134 91 73 102 125 72 82 132 119 81 75 83 74 65 88 125 87 63 83 115 95 75 83 94 112 113 90 103 92 89 75 71 97 274 290 294 292 270 254 250 257 265 273 281 301 305 310
50 60 63 70 78 81 79 64 62 56 55 59 69 65 55 63 69 74 70 70 73 72 64 61 69 66 51 48 44 42 23 73 85 45 48 109 129 90 49 41 154 149 106 86 111 134 85 69 95 108 77 72 77 64 54 95 154 96 60 79 119 102 83 81 71 95 93 76 97 112 76 355 324 228 245 214 241 254 256 255 259 271 280 280 271 275 276
41 54 52 49 47 40 44 51 56 60 53 50 58 57 37 65 72 57 52 49 53 57 58 50 48 50 59 48 40 32 57 19 74 112 76 77 94 116 99 81 77 104 124 93 79 112 128 91 68 73 87 85 73 83 67 56 75 116 98 74 74 80 86 88 75 79 84 73 30 94 265 222 252 253 258 268 265 259 260 263 271 266 260 258 262 269 285
35 42 40 31 29 28 22 46 53 52 39 36 44 33 348 4 57 40 31 42 59 68 65 51 41 38 46 51 40 37 31 45 78 93 80 53 57 103 153 109 47 52 87 157 102 65 82 118 106 69 62 95 97 87 95 63 54 79 136 76 56 52 44 61 28 21 28 193 293 281 254 234 246 252 253 245 250 258 265 262 259 261 267 274 272 271 270
29 41 42 36 42 44 39 49 52 45 43 38 35 17 23 44 57 50 37 12 36 61 64 66 55 39 26 40 77 66 37 38 52 86 122 76 42 45 64 144 98 48 61 109 137 88 49 104 161 105 61 55 84 86 101 103 71 44 51 92 62 46 35 356 24 302 286 249 230 248 265 281 281 277 265 259 261 262 261 259 258 261 264 265 269 270 266
47 53 58 60 60 52 47 42 42 44 44 41 33 19 27 48 56 50 38 26 32 43 41 83 79 32 23 20 28 36 179 35 31 37 67 152 105 42 49 63 150 105 43 50 73 158 109 45 52 114 140 94 59 57 53 70 106 59 28 28 98 210 349 316 282 301 291 290 262 262 269 267 254 250 258 256 250 250 253 256 258 260 262 264 262 263 267